Content
SEND FEEDBACK

Daily
Averages
Monthly
Summary
United States of America

RUSK, TEXAS


Home > North America > United States > Texas
Elevation: 502 feet     Latitude: 31 48N     Longitude: 095 09W

WEATHER
 
SELECT A DAY
Number of Records: 77,158;   Date Range: 7/9/03 - 7/24/14
 
SHARE

PRINT THIS DATA

[ ← Previous Day ]
WEATHER ALMANAC - FEBRUARY 13, 2013
[ Next Day → ]
[ °C ]   °F
Weather ElementAverageHighLow
Temperature42.3 °F46 °F (4:35 pm)38.7 °F (11:35 pm)
Dewpoint37 °F41.2 °F (1:15 am)35.1 °F (4:55 pm)
Humidity82 %95 % (1:55 am)66 % (4:55 pm)
Barometer30.08 in30.15 in (10:15 am)29.96 in (12:35 am)
Wind Speed6 mph12.7 mph (4:55 am)
Wind Gust21.9 mph (2:55 am)
Weather ElementAverage
Visibility10 mi
Wind DirectionWSW (250.9 °)

Weather ElementTotal
Precipitation---
Heating Degree Days22.7 (Base 65)
Averaged from 65 records on February 13, 2013
WEATHER CONDITIONS BREAKOUT
WIND DIRECTION BREAKOUT
WEATHER BY HOUR - FEBRUARY 13, 2013
[ °C ]   °F
Local TimeTemperatureDewpointHumidityBarometerVisibilityWind DirectionWind SpeedGust SpeedPrecipitationEventsConditions
12:35 AM43.7 °F41.0 °F90 %29.96 in10.0 miNW (310°)9.2 mph16.1 mphScattered Clouds
12:55 AM43.3 °F41.0 °F91 %29.97 in10.0 miWNW (290°)8.1 mphClear
1:15 AM43.0 °F41.2 °F93 %29.99 in10.0 miWNW (290°)10.4 mphScattered Clouds
1:35 AM42.8 °F41.0 °F93 %29.99 in10.0 miNW (310°)9.2 mphScattered Clouds
1:55 AM42.3 °F41.0 °F95 %30.00 in10.0 miWNW (300°)10.4 mphScattered Clouds
2:15 AM42.6 °F41.0 °F94 %30.00 in10.0 miNW (310°)11.5 mph16.1 mphScattered Clouds
2:35 AM43.0 °F41.0 °F93 %29.99 in10.0 miNW (310°)11.5 mph17.3 mphMostly Cloudy
2:55 AM43.3 °F40.6 °F90 %30.01 in10.0 miWNW (300°)11.5 mph21.9 mphOvercast
3:15 AM43.5 °F39.6 °F86 %30.03 in10.0 miNW (310°)10.4 mph19.6 mphOvercast
3:35 AM43.2 °F39.2 °F86 %30.03 in10.0 miWNW (290°)10.4 mphOvercast
3:55 AM43.0 °F38.3 °F84 %30.04 in10.0 miWNW (290°)6.9 mphOvercast
4:15 AM42.8 °F38.1 °F84 %30.05 in10.0 miWNW (300°)9.2 mphOvercast
4:35 AM41.5 °F37.4 °F85 %30.06 in10.0 miWNW (290°)5.8 mphScattered Clouds
4:55 AM41.5 °F37.4 °F85 %30.06 in10.0 miWNW (300°)12.7 mph17.3 mphMostly Cloudy
5:15 AM41.2 °F37.0 °F85 %30.06 in10.0 miWNW (300°)9.2 mphOvercast
5:35 AM40.6 °F36.7 °F86 %30.06 in10.0 miWNW (300°)9.2 mphOvercast
6:15 AM40.3 °F36.5 °F86 %30.07 in10.0 miNW (310°)8.1 mphOvercast
6:35 AM40.1 °F36.5 °F87 %30.08 in10.0 miNW (310°)8.1 mphOvercast
7:15 AM40.1 °F36.1 °F86 %30.09 in10.0 miWNW (300°)6.9 mphOvercast
7:35 AM40.1 °F36.0 °F85 %30.10 in10.0 miNW (320°)5.8 mphOvercast
7:55 AM40.1 °F36.3 °F86 %30.11 in10.0 miNW (310°)4.6 mphOvercast
8:35 AM40.1 °F36.9 °F88 %30.12 in10.0 miNNW (340°)6.9 mphOvercast
8:55 AM40.3 °F35.8 °F84 %30.14 in10.0 miNW (320°)5.8 mphOvercast
9:15 AM41.0 °F35.6 °F81 %30.14 in10.0 miNNW (330°)5.8 mphOvercast
9:35 AM41.5 °F35.2 °F78 %30.14 in10.0 miNNW (340°)6.9 mphOvercast
9:55 AM41.9 °F35.4 °F78 %30.14 in10.0 miNNW (340°)5.8 mphOvercast
10:15 AM42.4 °F35.8 °F77 %30.15 in10.0 miNNW (330°)4.6 mphOvercast
10:35 AM42.3 °F36.5 °F80 %30.15 in10.0 miWNW (300°)9.2 mphOvercast
11:15 AM42.4 °F37.0 °F81 %30.14 in10.0 miNNW (330°)5.8 mphOvercast
11:35 AM43.7 °F36.0 °F74 %30.14 in10.0 miWNW (300°)5.8 mphOvercast
11:55 AM44.8 °F36.7 °F73 %30.14 in10.0 miNorth (360°)6.9 mphOvercast
12:15 PM44.1 °F36.7 °F75 %30.14 in10.0 miNW (320°)9.2 mphOvercast
12:35 PM44.1 °F37.0 °F76 %30.14 in10.0 miNW (320°)6.9 mphOvercast
12:55 PM44.1 °F36.7 °F75 %30.13 in10.0 miNW (310°)8.1 mphOvercast
1:15 PM43.7 °F36.7 °F76 %30.12 in10.0 miNW (310°)9.2 mphOvercast
1:35 PM43.7 °F36.7 °F76 %30.11 in10.0 miWNW (300°)5.8 mphOvercast
1:55 PM43.7 °F36.3 °F75 %30.11 in10.0 miNNW (340°)4.6 mphOvercast
2:15 PM44.1 °F35.8 °F73 %30.10 in10.0 miWNW (290°)5.8 mphOvercast
2:35 PM44.6 °F36.3 °F73 %30.09 in10.0 miNNW (330°)4.6 mphOvercast
2:55 PM44.2 °F36.1 °F73 %30.09 in10.0 miNNW (340°)6.9 mphOvercast
3:15 PM44.4 °F35.8 °F72 %30.08 in10.0 miNW (310°)6.9 mphOvercast
3:35 PM45.1 °F36.0 °F70 %30.08 in10.0 miWSW (250°)4.6 mphOvercast
3:55 PM44.2 °F35.2 °F71 %30.09 in10.0 miCalmScattered Clouds
4:15 PM45.3 °F35.8 °F69 %30.08 in10.0 miWNW (290°)3.5 mphClear
4:35 PM46.0 °F36.0 °F68 %30.08 in10.0 miNNW (340°)3.5 mphClear
4:55 PM46.0 °F35.1 °F66 %30.08 in10.0 miWest (280°)4.6 mphClear
5:15 PM45.9 °F35.6 °F67 %30.08 in10.0 miCalmClear
5:35 PM45.7 °F35.6 °F68 %30.08 in10.0 miCalmClear
5:55 PM45.5 °F35.4 °F68 %30.08 in10.0 miCalmClear
6:15 PM44.4 °F36.1 °F73 %30.08 in10.0 miCalmClear
6:35 PM42.3 °F36.9 °F81 %30.08 in10.0 miCalmClear
7:15 PM39.6 °F36.3 °F88 %30.08 in10.0 miCalmClear
7:35 PM39.7 °F37.0 °F90 %30.08 in10.0 miSouth (180°)3.5 mphClear
7:55 PM39.4 °F36.9 °F91 %30.08 in10.0 miCalmClear
8:15 PM39.6 °F36.5 °F89 %30.08 in10.0 miSouth (190°)3.5 mphClear
8:35 PM40.8 °F36.1 °F83 %30.09 in10.0 miSouth (190°)4.6 mphClear
8:55 PM40.3 °F36.0 °F85 %30.09 in10.0 miSouth (190°)3.5 mphClear
9:15 PM39.6 °F36.5 °F89 %30.10 in10.0 miSSW (200°)4.6 mphClear
9:35 PM39.4 °F36.5 °F89 %30.10 in10.0 miSouth (190°)4.6 mphClear
9:55 PM39.4 °F36.5 °F89 %30.10 in10.0 miSSW (200°)4.6 mphClear
10:15 PM39.2 °F36.5 °F90 %30.10 in10.0 miSSW (200°)5.8 mphClear
10:35 PM39.4 °F36.5 °F89 %30.10 in10.0 miSSW (200°)5.8 mphClear
10:55 PM39.6 °F36.3 °F88 %30.10 in10.0 miSouth (190°)5.8 mphClear
11:15 PM39.2 °F36.1 °F89 %30.10 in10.0 miSSW (200°)4.6 mphClear
11:35 PM38.7 °F36.5 °F92 %30.10 in10.0 miSSW (210°)4.6 mphClear
Hourly data recorded from KJSO, located miles away from Rusk, Texas







STORIES FROM OUR PARTNERS